THY2LD LTFM-EGLL

Flight info

Callsign THY2LD
Flight time 3h 12m
Altitude 38000
Route TUDBU1D/35L TUDBU Q26 ETUBA DCT NAVOD DCT INVED DCT BEGLA DCT DEXIT DCT INBED DCT BOMBI DCT ADKUV DCT BUB L608 LOGAN
Aircraft A359/H-SDE2E3GHIJ3J4J5LM1ORWXY/LB1D1

Departure

Time 2026-05-05 09:42
Airport İstanbul Airport (LTFM)

Arrival

Time 2026-05-05 12:54
Airport London Heathrow Airport (EGLL)
Time Latitude Longitude Altitude Speed Heading
2026-05-05 09:30 41.26790 28.73442 340 ft 0 kts 179°
2026-05-05 09:32 41.26803 28.73441 335 ft 4 kts 179°
2026-05-05 09:33 41.26830 28.73441 338 ft 4 kts 179°
2026-05-05 09:33 41.26853 28.73441 335 ft 4 kts 199°
2026-05-05 09:33 41.26869 28.73460 335 ft 4 kts 260°
2026-05-05 09:33 41.26871 28.73494 336 ft 2 kts 269°
2026-05-05 09:34 41.26871 28.73502 336 ft 0 kts 269°
2026-05-05 09:36 41.26871 28.73494 336 ft 3 kts 269°
2026-05-05 09:37 41.26870 28.73428 335 ft 10 kts 269°
2026-05-05 09:37 41.26868 28.73324 337 ft 12 kts 269°
2026-05-05 09:37 41.26867 28.73206 337 ft 13 kts 269°
2026-05-05 09:37 41.26865 28.73082 336 ft 14 kts 269°
2026-05-05 09:38 41.26832 28.72995 336 ft 11 kts 198°
2026-05-05 09:38 41.26749 28.72992 336 ft 13 kts 179°
2026-05-05 09:38 41.26653 28.72994 340 ft 14 kts 179°
2026-05-05 09:38 41.26605 28.72973 335 ft 1 kts 237°
2026-05-05 09:39 41.26600 28.72953 335 ft 6 kts 256°
2026-05-05 09:39 41.26595 28.72855 337 ft 14 kts 269°
2026-05-05 09:40 41.26593 28.72702 337 ft 15 kts 269°
2026-05-05 09:40 41.26591 28.72578 337 ft 8 kts 268°
2026-05-05 09:40 41.26622 28.72519 336 ft 10 kts 341°
2026-05-05 09:40 41.26694 28.72515 335 ft 5 kts 359°
2026-05-05 09:41 41.26779 28.72512 336 ft 29 kts 359°
2026-05-05 09:41 41.27198 28.72500 335 ft 90 kts 358°
2026-05-05 09:41 41.28005 28.72484 339 ft 141 kts 359°
2026-05-05 09:41 41.29106 28.72457 590 ft 164 kts 358°
2026-05-05 09:42 41.30207 28.72406 1320 ft 159 kts 357°
2026-05-05 09:42 41.31367 28.72332 1759 ft 174 kts 359°
2026-05-05 09:42 41.32622 28.72255 2189 ft 187 kts 358°
2026-05-05 09:42 41.33944 28.71947 2634 ft 202 kts 341°
2026-05-05 09:43 41.35166 28.70866 2964 ft 223 kts 315°
2026-05-05 09:43 41.36179 28.69186 3327 ft 242 kts 310°
2026-05-05 09:43 41.37264 28.67409 3855 ft 251 kts 313°
2026-05-05 09:43 41.38459 28.65697 4542 ft 252 kts 316°
2026-05-05 09:44 41.39674 28.64034 5377 ft 249 kts 317°
2026-05-05 09:44 41.40869 28.62359 6127 ft 251 kts 316°
2026-05-05 09:44 41.42045 28.60613 6816 ft 256 kts 314°
2026-05-05 09:44 41.43199 28.58776 7481 ft 261 kts 313°
2026-05-05 09:45 41.44387 28.56940 8233 ft 262 kts 315°
2026-05-05 09:45 41.45019 28.55999 8652 ft 262 kts 316°
2026-05-05 09:45 41.46248 28.54198 9476 ft 262 kts 316°
2026-05-05 09:45 41.47480 28.52399 10249 ft 265 kts 316°
2026-05-05 09:46 41.48742 28.50539 10698 ft 278 kts 316°
2026-05-05 09:46 41.50049 28.48572 10997 ft 296 kts 315°
2026-05-05 09:46 41.51433 28.46430 11340 ft 313 kts 314°
2026-05-05 09:46 41.52893 28.44174 11672 ft 329 kts 314°
2026-05-05 09:47 41.54443 28.41829 12043 ft 342 kts 315°
2026-05-05 09:47 41.56042 28.39443 12677 ft 347 kts 315°
2026-05-05 09:47 41.57668 28.37025 13305 ft 352 kts 315°
2026-05-05 09:47 41.59327 28.34529 13960 ft 357 kts 315°
2026-05-05 09:48 41.60963 28.32005 14544 ft 361 kts 314°
2026-05-05 09:48 41.62048 28.30317 14955 ft 362 kts 314°
2026-05-05 09:48 41.64273 28.26985 15818 ft 363 kts 315°
2026-05-05 09:48 41.65973 28.24490 16473 ft 364 kts 315°
2026-05-05 09:49 41.67670 28.21960 17074 ft 367 kts 315°
2026-05-05 09:49 41.69358 28.19366 17695 ft 371 kts 314°
2026-05-05 09:49 41.71018 28.16709 18291 ft 374 kts 313°
2026-05-05 09:49 41.72745 28.14074 18774 ft 379 kts 315°
2026-05-05 09:50 41.74519 28.11441 19270 ft 383 kts 315°
2026-05-05 09:50 41.75699 28.09680 19633 ft 385 kts 315°
2026-05-05 09:50 41.77488 28.06990 20185 ft 388 kts 314°
2026-05-05 09:50 41.79284 28.04273 20726 ft 391 kts 314°
2026-05-05 09:51 41.81094 28.01525 21268 ft 395 kts 314°
2026-05-05 09:51 41.82915 27.98751 21823 ft 398 kts 314°
2026-05-05 09:51 41.84751 27.95951 22328 ft 402 kts 314°
2026-05-05 09:51 41.86606 27.93119 22835 ft 406 kts 313°
2026-05-05 09:52 41.88473 27.90263 23360 ft 409 kts 313°
2026-05-05 09:52 41.90355 27.87382 23847 ft 412 kts 313°
2026-05-05 09:52 41.92248 27.84479 24281 ft 415 kts 313°
2026-05-05 09:52 41.94152 27.81558 24765 ft 416 kts 313°
2026-05-05 09:53 41.96062 27.78626 25260 ft 418 kts 313°
2026-05-05 09:53 41.97992 27.75702 25720 ft 419 kts 314°
2026-05-05 09:53 42.00008 27.72860 26155 ft 421 kts 316°
2026-05-05 09:53 42.02084 27.70060 26624 ft 423 kts 317°
2026-05-05 09:54 42.04180 27.67269 27074 ft 425 kts 317°
2026-05-05 09:54 42.06257 27.64493 27504 ft 428 kts 316°
2026-05-05 09:54 42.08392 27.61615 27927 ft 430 kts 316°
2026-05-05 09:54 42.10471 27.58788 28426 ft 430 kts 316°
2026-05-05 09:55 42.12603 27.55872 28877 ft 432 kts 316°
2026-05-05 09:55 42.14685 27.53016 29264 ft 435 kts 316°
2026-05-05 09:55 42.16817 27.50084 29552 ft 440 kts 316°
2026-05-05 09:55 42.18963 27.47127 29932 ft 442 kts 315°
2026-05-05 09:56 42.20543 27.44948 30209 ft 444 kts 315°
2026-05-05 09:56 42.22610 27.42092 30509 ft 446 kts 315°
2026-05-05 09:56 42.24809 27.39051 30788 ft 449 kts 316°
2026-05-05 09:57 42.26995 27.36025 31073 ft 451 kts 316°
2026-05-05 09:57 42.29160 27.33027 31357 ft 453 kts 316°
2026-05-05 09:57 42.31362 27.29973 31639 ft 455 kts 316°
2026-05-05 09:57 42.33577 27.26899 31913 ft 457 kts 316°
2026-05-05 09:58 42.35797 27.23813 32154 ft 459 kts 316°
2026-05-05 09:58 42.38029 27.20707 32412 ft 461 kts 316°
2026-05-05 09:58 42.40268 27.17590 32657 ft 463 kts 316°
2026-05-05 09:58 42.42513 27.14459 32909 ft 464 kts 316°
2026-05-05 09:59 42.44752 27.11334 33331 ft 461 kts 316°
2026-05-05 09:59 42.46985 27.08213 33664 ft 461 kts 316°
2026-05-05 09:59 42.49216 27.05092 33981 ft 461 kts 316°
2026-05-05 09:59 42.51440 27.01979 34257 ft 460 kts 316°
2026-05-05 10:00 42.53663 26.98861 34507 ft 460 kts 315°
2026-05-05 10:00 42.55890 26.95735 34732 ft 460 kts 315°
2026-05-05 10:00 42.58112 26.92612 34949 ft 460 kts 315°
2026-05-05 10:00 42.60332 26.89490 35180 ft 460 kts 315°
2026-05-05 10:01 42.62555 26.86360 35399 ft 460 kts 315°
2026-05-05 10:01 42.64778 26.83227 35587 ft 461 kts 315°
2026-05-05 10:01 42.67002 26.80090 35786 ft 461 kts 315°
2026-05-05 10:01 42.69225 26.76950 35980 ft 461 kts 315°
2026-05-05 10:02 42.71451 26.73803 36184 ft 461 kts 315°
2026-05-05 10:02 42.73672 26.70659 36349 ft 462 kts 315°
2026-05-05 10:02 42.75901 26.67500 36511 ft 463 kts 315°
2026-05-05 10:02 42.78131 26.64336 36647 ft 464 kts 315°
2026-05-05 10:03 42.80338 26.61130 36826 ft 464 kts 312°
2026-05-05 10:03 42.82312 26.57640 36997 ft 466 kts 306°
2026-05-05 10:03 42.84142 26.54000 37172 ft 466 kts 305°
2026-05-05 10:03 42.85932 26.50321 37352 ft 466 kts 304°
2026-05-05 10:04 42.87696 26.46624 37481 ft 466 kts 304°
2026-05-05 10:04 42.89456 26.42906 37627 ft 467 kts 304°
2026-05-05 10:04 42.91216 26.39176 37753 ft 467 kts 304°
2026-05-05 10:04 42.92976 26.35450 37910 ft 467 kts 304°
2026-05-05 10:05 42.94739 26.31720 38033 ft 468 kts 304°
2026-05-05 10:05 42.96510 26.27974 38054 ft 471 kts 304°
2026-05-05 10:05 43.00068 26.20446 38055 ft 472 kts 304°
2026-05-05 10:06 43.03628 26.12898 38058 ft 472 kts 304°
2026-05-05 10:06 43.07176 26.05357 38052 ft 472 kts 304°
2026-05-05 10:07 43.10720 25.97802 38053 ft 472 kts 304°
2026-05-05 10:07 43.14261 25.90233 38045 ft 472 kts 304°
2026-05-05 10:08 43.17793 25.82666 38047 ft 472 kts 304°
2026-05-05 10:08 43.21325 25.75080 38047 ft 472 kts 304°
2026-05-05 10:09 43.24826 25.67542 38047 ft 472 kts 304°
2026-05-05 10:09 43.28346 25.59940 38050 ft 472 kts 304°
2026-05-05 10:10 43.31860 25.52334 38052 ft 472 kts 304°
2026-05-05 10:10 43.35369 25.44718 38054 ft 472 kts 304°
2026-05-05 10:11 43.38875 25.37091 38043 ft 472 kts 304°
2026-05-05 10:11 43.42374 25.29458 38070 ft 471 kts 304°
2026-05-05 10:12 43.45861 25.21832 38068 ft 471 kts 304°
2026-05-05 10:12 43.49347 25.14187 38046 ft 471 kts 304°
2026-05-05 10:13 43.52823 25.06543 38057 ft 471 kts 304°
2026-05-05 10:13 43.56289 24.98901 38063 ft 470 kts 303°
2026-05-05 10:14 43.59751 24.91247 38064 ft 470 kts 303°
2026-05-05 10:14 43.63208 24.83586 38041 ft 471 kts 303°
2026-05-05 10:15 43.66662 24.75914 38055 ft 470 kts 303°
2026-05-05 10:15 43.70097 24.68259 38058 ft 469 kts 303°
2026-05-05 10:16 43.73527 24.60595 38055 ft 468 kts 303°
2026-05-05 10:16 43.77276 24.53337 38057 ft 466 kts 311°
2026-05-05 10:17 43.81441 24.46471 38052 ft 465 kts 312°
2026-05-05 10:17 43.85658 24.39672 38055 ft 465 kts 312°
2026-05-05 10:18 43.89868 24.32877 38053 ft 465 kts 312°
2026-05-05 10:18 43.94071 24.26056 38045 ft 465 kts 312°
2026-05-05 10:19 43.98268 24.19219 38051 ft 465 kts 312°
2026-05-05 10:19 44.02458 24.12373 38051 ft 465 kts 311°
2026-05-05 10:20 44.06639 24.05526 38046 ft 465 kts 311°
2026-05-05 10:20 44.10817 23.98669 38042 ft 465 kts 311°
2026-05-05 10:21 44.14987 23.91807 38045 ft 464 kts 311°
2026-05-05 10:21 44.19153 23.84937 38045 ft 464 kts 311°
2026-05-05 10:22 44.23316 23.78054 38045 ft 464 kts 311°
2026-05-05 10:22 44.27471 23.71169 38047 ft 464 kts 311°
2026-05-05 10:23 44.31590 23.64326 38047 ft 463 kts 311°
2026-05-05 10:23 44.35729 23.57434 38047 ft 463 kts 311°
2026-05-05 10:24 44.39860 23.50537 38047 ft 463 kts 311°
2026-05-05 10:24 44.43989 23.43629 38044 ft 462 kts 311°
2026-05-05 10:25 44.48099 23.36735 38045 ft 461 kts 311°
2026-05-05 10:25 44.52200 23.29841 38045 ft 461 kts 311°
2026-05-05 10:26 44.56300 23.22931 38038 ft 461 kts 311°
2026-05-05 10:26 44.60402 23.16001 38042 ft 462 kts 310°
2026-05-05 10:27 44.64497 23.09064 38043 ft 461 kts 310°
2026-05-05 10:27 44.68585 23.02123 38040 ft 461 kts 310°
2026-05-05 10:28 44.72676 22.95163 38040 ft 461 kts 310°
2026-05-05 10:28 44.76759 22.88198 38039 ft 461 kts 310°
2026-05-05 10:29 44.80837 22.81222 38042 ft 461 kts 310°
2026-05-05 10:29 44.84909 22.74240 38045 ft 461 kts 310°
2026-05-05 10:30 44.88977 22.67249 38047 ft 462 kts 310°
2026-05-05 10:30 44.93053 22.60226 38045 ft 462 kts 310°
2026-05-05 10:31 44.97098 22.53241 38045 ft 463 kts 310°
2026-05-05 10:31 45.01170 22.46190 38047 ft 463 kts 310°
2026-05-05 10:32 45.05239 22.39127 38047 ft 463 kts 310°
2026-05-05 10:32 45.09297 22.32065 38042 ft 462 kts 310°
2026-05-05 10:33 45.13350 22.24993 38040 ft 462 kts 310°
2026-05-05 10:33 45.17395 22.17919 38039 ft 462 kts 310°
2026-05-05 10:34 45.21435 22.10837 38036 ft 462 kts 310°
2026-05-05 10:34 45.25479 22.03729 38034 ft 462 kts 309°
2026-05-05 10:35 45.29515 21.96617 38031 ft 462 kts 309°
2026-05-05 10:35 45.33542 21.89505 38031 ft 462 kts 309°
2026-05-05 10:36 45.37568 21.82374 38025 ft 462 kts 309°
2026-05-05 10:36 45.41582 21.75248 38027 ft 460 kts 309°
2026-05-05 10:37 45.45574 21.68142 38025 ft 459 kts 309°
2026-05-05 10:37 45.49563 21.61024 38026 ft 459 kts 309°
2026-05-05 10:38 45.53543 21.53905 38027 ft 460 kts 309°
2026-05-05 10:38 45.57528 21.46757 38026 ft 460 kts 309°
2026-05-05 10:39 45.60840 21.40804 38025 ft 460 kts 309°
2026-05-05 10:39 45.64813 21.33645 38027 ft 460 kts 309°
2026-05-05 10:40 45.68787 21.26465 38026 ft 460 kts 309°
2026-05-05 10:40 45.72755 21.19280 38017 ft 460 kts 308°
2026-05-05 10:41 45.76717 21.12087 38021 ft 460 kts 308°
2026-05-05 10:41 45.80672 21.04888 38018 ft 460 kts 308°
2026-05-05 10:42 45.86602 20.94058 38021 ft 460 kts 308°
2026-05-05 10:43 45.90553 20.86818 38023 ft 461 kts 308°
2026-05-05 10:43 45.94506 20.79559 38018 ft 461 kts 308°
2026-05-05 10:44 45.98455 20.72288 38017 ft 461 kts 308°
2026-05-05 10:44 46.02372 20.65057 38014 ft 461 kts 308°
2026-05-05 10:45 46.06337 20.57718 38014 ft 462 kts 308°
2026-05-05 10:45 46.10255 20.50445 38010 ft 463 kts 308°
2026-05-05 10:46 46.14197 20.43110 38010 ft 463 kts 308°
2026-05-05 10:46 46.18135 20.35774 38011 ft 463 kts 308°
2026-05-05 10:47 46.22086 20.28437 38006 ft 464 kts 307°
2026-05-05 10:47 46.26045 20.21072 38007 ft 464 kts 307°
2026-05-05 10:48 46.30002 20.13685 38007 ft 465 kts 307°
2026-05-05 10:48 46.33949 20.06290 38007 ft 464 kts 307°
2026-05-05 10:49 46.37893 19.98884 38004 ft 464 kts 307°
2026-05-05 10:49 46.41836 19.91460 38004 ft 465 kts 307°
2026-05-05 10:50 46.45769 19.84035 38004 ft 465 kts 307°
2026-05-05 10:50 46.49702 19.76591 38005 ft 465 kts 307°
2026-05-05 10:51 46.53630 19.69137 37998 ft 465 kts 307°
2026-05-05 10:51 46.57557 19.61664 38001 ft 465 kts 307°
2026-05-05 10:52 46.61478 19.54180 37996 ft 465 kts 306°
2026-05-05 10:52 46.65398 19.46682 37993 ft 465 kts 306°
2026-05-05 10:53 46.69313 19.39170 37996 ft 466 kts 306°
2026-05-05 10:53 46.73225 19.31642 37993 ft 466 kts 306°
2026-05-05 10:54 46.77136 19.24099 37990 ft 467 kts 306°
2026-05-05 10:54 46.81045 19.16539 37987 ft 467 kts 306°
2026-05-05 10:55 46.84949 19.08967 37988 ft 466 kts 306°
2026-05-05 10:55 46.88849 19.01383 37986 ft 467 kts 305°
2026-05-05 10:56 46.92744 18.93788 37980 ft 467 kts 306°
2026-05-05 10:56 46.96615 18.86215 37980 ft 467 kts 305°
2026-05-05 10:57 47.00520 18.78559 37975 ft 466 kts 305°
2026-05-05 10:57 47.04374 18.70981 37970 ft 467 kts 305°
2026-05-05 10:58 47.08257 18.63326 37970 ft 467 kts 305°
2026-05-05 10:58 47.12130 18.55667 37961 ft 467 kts 305°
2026-05-05 10:59 47.15994 18.48006 37960 ft 466 kts 305°
2026-05-05 10:59 47.19845 18.40351 37958 ft 464 kts 304°
2026-05-05 11:00 47.23669 18.32728 37957 ft 462 kts 304°
2026-05-05 11:00 47.27491 18.25083 37950 ft 466 kts 304°
2026-05-05 11:01 47.31332 18.17384 37943 ft 466 kts 304°
2026-05-05 11:01 47.35155 18.09703 37942 ft 464 kts 304°
2026-05-05 11:02 47.38966 18.02019 37936 ft 465 kts 304°
2026-05-05 11:02 47.42775 17.94313 37936 ft 466 kts 304°
2026-05-05 11:03 47.46602 17.86552 37925 ft 468 kts 304°
2026-05-05 11:03 47.50433 17.78766 37944 ft 468 kts 304°
2026-05-05 11:04 47.54247 17.70993 37935 ft 466 kts 304°
2026-05-05 11:04 47.58047 17.63223 37932 ft 464 kts 304°
2026-05-05 11:05 47.61828 17.55467 37925 ft 464 kts 304°
2026-05-05 11:05 47.65620 17.47670 37919 ft 466 kts 304°
2026-05-05 11:06 47.69404 17.39870 37911 ft 464 kts 303°
2026-05-05 11:06 47.73165 17.32093 37889 ft 463 kts 303°
2026-05-05 11:07 47.76920 17.24301 37878 ft 465 kts 303°
2026-05-05 11:07 47.80685 17.16472 37875 ft 464 kts 303°
2026-05-05 11:08 47.83969 17.08255 37873 ft 463 kts 293°
2026-05-05 11:08 47.86620 16.99549 37870 ft 461 kts 292°
2026-05-05 11:09 47.89172 16.90755 37866 ft 463 kts 291°
2026-05-05 11:09 47.91708 16.81957 37849 ft 462 kts 291°
2026-05-05 11:10 47.94220 16.73259 37840 ft 459 kts 291°
2026-05-05 11:10 47.96750 16.64486 37830 ft 461 kts 291°
2026-05-05 11:11 47.99280 16.55688 37826 ft 462 kts 291°
2026-05-05 11:11 48.01807 16.46872 37830 ft 461 kts 291°
2026-05-05 11:12 48.04324 16.38060 37828 ft 460 kts 291°
2026-05-05 11:12 48.06823 16.29267 37819 ft 461 kts 291°
2026-05-05 11:13 48.09333 16.20404 37810 ft 464 kts 291°
2026-05-05 11:13 48.11845 16.11508 37810 ft 464 kts 291°
2026-05-05 11:14 48.14346 16.02618 37808 ft 463 kts 291°
2026-05-05 11:14 48.16835 15.93736 37807 ft 463 kts 291°
2026-05-05 11:15 48.19327 15.84809 37811 ft 464 kts 291°
2026-05-05 11:15 48.21811 15.75879 37813 ft 464 kts 290°
2026-05-05 11:16 48.24291 15.66931 37814 ft 464 kts 290°
2026-05-05 11:16 48.26763 15.57974 37820 ft 465 kts 290°
2026-05-05 11:17 48.29229 15.49004 37807 ft 465 kts 290°
2026-05-05 11:17 48.31690 15.40021 37808 ft 465 kts 290°
2026-05-05 11:18 48.34145 15.31024 37806 ft 465 kts 290°
2026-05-05 11:18 48.36591 15.22023 37805 ft 465 kts 290°
2026-05-05 11:19 48.39034 15.13007 37801 ft 465 kts 290°
2026-05-05 11:19 48.41467 15.03989 37807 ft 465 kts 290°
2026-05-05 11:20 48.43895 14.94956 37799 ft 465 kts 290°
2026-05-05 11:20 48.46314 14.85916 37802 ft 465 kts 290°
2026-05-05 11:21 48.48725 14.76877 37797 ft 464 kts 289°
2026-05-05 11:21 48.51124 14.67847 37814 ft 464 kts 289°
2026-05-05 11:22 48.53515 14.58812 37804 ft 463 kts 289°
2026-05-05 11:22 48.55881 14.49835 37812 ft 463 kts 289°
2026-05-05 11:23 48.58256 14.40787 37801 ft 463 kts 289°
2026-05-05 11:23 48.60622 14.31739 37808 ft 463 kts 289°
2026-05-05 11:24 48.62982 14.22682 37797 ft 463 kts 289°
2026-05-05 11:24 48.65334 14.13619 37818 ft 463 kts 289°
2026-05-05 11:25 48.67678 14.04548 37805 ft 463 kts 289°
2026-05-05 11:25 48.70017 13.95464 37806 ft 463 kts 289°
2026-05-05 11:26 48.71952 13.87918 37806 ft 462 kts 288°
2026-05-05 11:26 48.74273 13.78837 37809 ft 462 kts 288°
2026-05-05 11:27 48.76586 13.69750 37804 ft 462 kts 288°
2026-05-05 11:27 48.78819 13.60607 37809 ft 462 kts 287°
2026-05-05 11:28 48.80977 13.51444 37802 ft 461 kts 287°
2026-05-05 11:28 48.83137 13.42278 37805 ft 461 kts 287°
2026-05-05 11:29 48.85306 13.33106 37802 ft 461 kts 287°
2026-05-05 11:29 48.87474 13.23926 37809 ft 462 kts 287°
2026-05-05 11:30 48.89634 13.14740 37799 ft 463 kts 287°
2026-05-05 11:30 48.91793 13.05519 37799 ft 463 kts 287°
2026-05-05 11:31 48.93943 12.96292 37809 ft 463 kts 287°
2026-05-05 11:31 48.96084 12.87060 37792 ft 463 kts 286°
2026-05-05 11:32 48.98220 12.77817 37796 ft 463 kts 286°
2026-05-05 11:32 49.00348 12.68564 37797 ft 463 kts 286°
2026-05-05 11:33 49.02468 12.59308 37794 ft 463 kts 286°
2026-05-05 11:33 49.04567 12.50107 37802 ft 463 kts 286°
2026-05-05 11:34 49.06688 12.40768 37804 ft 463 kts 286°
2026-05-05 11:34 49.08776 12.31524 37804 ft 464 kts 286°
2026-05-05 11:35 49.10872 12.22215 37791 ft 463 kts 285°
2026-05-05 11:35 49.12942 12.12977 37802 ft 463 kts 285°
2026-05-05 11:36 49.14681 12.05188 37810 ft 463 kts 285°
2026-05-05 11:36 49.16751 11.95873 37812 ft 463 kts 285°
2026-05-05 11:37 49.18818 11.86527 37813 ft 464 kts 285°
2026-05-05 11:37 49.20880 11.77170 37821 ft 464 kts 285°
2026-05-05 11:38 49.22932 11.67813 37811 ft 464 kts 285°
2026-05-05 11:38 49.24977 11.58448 37810 ft 464 kts 285°
2026-05-05 11:39 49.27022 11.49034 37815 ft 466 kts 285°
2026-05-05 11:39 49.29062 11.39607 37818 ft 467 kts 285°
2026-05-05 11:40 49.31098 11.30153 37817 ft 467 kts 285°
2026-05-05 11:40 49.33124 11.20701 37808 ft 467 kts 284°
2026-05-05 11:41 49.35145 11.11227 37807 ft 469 kts 284°
2026-05-05 11:41 49.37168 11.01693 37805 ft 470 kts 284°
2026-05-05 11:42 49.39431 10.92322 37812 ft 474 kts 291°
2026-05-05 11:42 49.42319 10.83132 37840 ft 475 kts 292°
2026-05-05 11:43 49.45272 10.74047 37841 ft 476 kts 292°
2026-05-05 11:43 49.48235 10.64929 37824 ft 478 kts 292°
2026-05-05 11:44 49.51167 10.55839 37822 ft 477 kts 292°
2026-05-05 11:44 49.54103 10.46685 37822 ft 476 kts 292°
2026-05-05 11:45 49.57026 10.37532 37823 ft 476 kts 292°
2026-05-05 11:45 49.59945 10.28359 37825 ft 477 kts 292°
2026-05-05 11:46 49.62862 10.19159 37822 ft 477 kts 292°
2026-05-05 11:46 49.65771 10.09952 37835 ft 477 kts 291°
2026-05-05 11:47 49.68671 10.00738 37829 ft 477 kts 291°
2026-05-05 11:47 49.71564 9.91509 37841 ft 478 kts 291°
2026-05-05 11:48 49.75908 9.77593 37844 ft 480 kts 291°
2026-05-05 11:48 49.78799 9.68290 37843 ft 479 kts 291°
2026-05-05 11:49 49.81679 9.58987 37846 ft 479 kts 291°
2026-05-05 11:49 49.84543 9.49695 37847 ft 479 kts 291°
2026-05-05 11:50 49.87406 9.40371 37844 ft 479 kts 291°
2026-05-05 11:50 49.90263 9.31032 37846 ft 479 kts 291°
2026-05-05 11:51 49.93113 9.21683 37846 ft 479 kts 291°
2026-05-05 11:51 49.95954 9.12328 37853 ft 479 kts 291°
2026-05-05 11:52 49.98789 9.02955 37840 ft 480 kts 291°
2026-05-05 11:52 50.01617 8.93572 37837 ft 480 kts 290°
2026-05-05 11:53 50.04443 8.84158 37837 ft 480 kts 290°
2026-05-05 11:53 50.07171 8.74704 37832 ft 478 kts 287°
2026-05-05 11:54 50.09426 8.64996 37830 ft 476 kts 284°
2026-05-05 11:54 50.11588 8.55258 37829 ft 475 kts 285°
2026-05-05 11:55 50.13791 8.45629 37827 ft 474 kts 285°
2026-05-05 11:55 50.16040 8.35970 37849 ft 475 kts 285°
2026-05-05 11:56 50.18294 8.26296 37864 ft 474 kts 285°
2026-05-05 11:56 50.20542 8.16597 37848 ft 476 kts 285°
2026-05-05 11:57 50.22783 8.06871 37848 ft 476 kts 285°
2026-05-05 11:57 50.25016 7.97137 37846 ft 476 kts 285°
2026-05-05 11:58 50.27233 7.87426 37842 ft 476 kts 285°
2026-05-05 11:58 50.29449 7.77677 37845 ft 477 kts 285°
2026-05-05 11:59 50.31667 7.67868 37846 ft 478 kts 285°
2026-05-05 11:59 50.33875 7.58061 37846 ft 478 kts 285°
2026-05-05 12:00 50.36025 7.48469 37843 ft 479 kts 285°
2026-05-05 12:00 50.38217 7.38643 37864 ft 478 kts 285°
2026-05-05 12:01 50.40354 7.29019 37839 ft 479 kts 285°
2026-05-05 12:01 50.42538 7.19132 37861 ft 479 kts 285°
2026-05-05 12:02 50.44709 7.09266 37850 ft 478 kts 284°
2026-05-05 12:02 50.46865 6.99415 37847 ft 477 kts 284°
2026-05-05 12:03 50.49002 6.89605 37849 ft 477 kts 284°
2026-05-05 12:03 50.51134 6.79758 37848 ft 477 kts 284°
2026-05-05 12:04 50.53031 6.69809 37852 ft 475 kts 281°
2026-05-05 12:04 50.54790 6.59786 37843 ft 475 kts 281°
2026-05-05 12:05 50.56564 6.49788 37852 ft 475 kts 282°
2026-05-05 12:05 50.58369 6.39760 37844 ft 477 kts 282°
2026-05-05 12:06 50.60175 6.29735 37845 ft 477 kts 282°
2026-05-05 12:06 50.61976 6.19691 37844 ft 476 kts 282°
2026-05-05 12:07 50.63765 6.09649 37861 ft 477 kts 282°
2026-05-05 12:07 50.65549 5.99574 37866 ft 478 kts 282°
2026-05-05 12:08 50.67327 5.89469 37873 ft 479 kts 282°
2026-05-05 12:08 50.69100 5.79342 37879 ft 479 kts 282°
2026-05-05 12:09 50.70865 5.69208 37880 ft 479 kts 281°
2026-05-05 12:09 50.72620 5.59066 37895 ft 479 kts 282°
2026-05-05 12:10 50.74370 5.48894 37882 ft 480 kts 282°
2026-05-05 12:10 50.76111 5.38717 37886 ft 479 kts 282°
2026-05-05 12:11 50.77837 5.28577 37886 ft 478 kts 282°
2026-05-05 12:11 50.79551 5.18434 37893 ft 477 kts 282°
2026-05-05 12:12 50.81256 5.08289 37895 ft 477 kts 282°
2026-05-05 12:12 50.82953 4.98136 37896 ft 477 kts 282°
2026-05-05 12:13 50.84357 4.89691 37889 ft 478 kts 282°
2026-05-05 12:13 50.86037 4.79527 37896 ft 478 kts 282°
2026-05-05 12:14 50.87708 4.69360 37911 ft 478 kts 282°
2026-05-05 12:14 50.89380 4.59175 37901 ft 479 kts 283°
2026-05-05 12:15 50.91991 4.49419 37917 ft 484 kts 296°
2026-05-05 12:15 50.95407 4.40192 37915 ft 486 kts 298°
2026-05-05 12:16 50.98939 4.31054 37900 ft 486 kts 298°
2026-05-05 12:16 51.02466 4.21901 37902 ft 486 kts 298°
2026-05-05 12:17 51.05967 4.12725 37916 ft 486 kts 298°
2026-05-05 12:17 51.09453 4.03523 37899 ft 486 kts 298°
2026-05-05 12:18 51.12930 3.94306 37899 ft 486 kts 298°
2026-05-05 12:18 51.16404 3.85068 37900 ft 486 kts 298°
2026-05-05 12:19 51.19866 3.75831 37905 ft 486 kts 298°
2026-05-05 12:19 51.23304 3.66625 37925 ft 487 kts 298°
2026-05-05 12:20 51.26767 3.57332 37911 ft 487 kts 298°
2026-05-05 12:20 51.30211 3.48031 37916 ft 486 kts 298°
2026-05-05 12:21 51.33623 3.38764 37921 ft 484 kts 297°
2026-05-05 12:21 51.36370 3.28996 37925 ft 481 kts 289°
2026-05-05 12:22 51.38773 3.19022 37926 ft 480 kts 288°
2026-05-05 12:22 51.41114 3.09017 37936 ft 480 kts 288°
2026-05-05 12:23 51.43455 2.99015 37935 ft 480 kts 288°
2026-05-05 12:23 51.45791 2.89006 37611 ft 478 kts 288°
2026-05-05 12:24 51.46953 2.84019 37348 ft 477 kts 288°
2026-05-05 12:24 51.48114 2.79031 37081 ft 477 kts 288°
2026-05-05 12:24 51.49271 2.74047 36815 ft 477 kts 288°
2026-05-05 12:24 51.50426 2.69063 36569 ft 477 kts 288°
2026-05-05 12:25 51.51575 2.64088 36145 ft 474 kts 288°
2026-05-05 12:25 51.52719 2.59132 35526 ft 473 kts 288°
2026-05-05 12:25 51.53859 2.54174 34879 ft 473 kts 288°
2026-05-05 12:26 51.54843 2.49884 34265 ft 474 kts 288°
2026-05-05 12:26 51.55983 2.44912 33594 ft 473 kts 287°
2026-05-05 12:26 51.57112 2.39971 33085 ft 467 kts 287°
2026-05-05 12:26 51.58223 2.35098 32590 ft 462 kts 287°
2026-05-05 12:27 51.59308 2.30337 32113 ft 457 kts 287°
2026-05-05 12:27 51.60395 2.25562 31601 ft 453 kts 287°
2026-05-05 12:27 51.61472 2.20815 31116 ft 450 kts 287°
2026-05-05 12:27 51.62551 2.16048 30616 ft 446 kts 287°
2026-05-05 12:28 51.63593 2.11433 30146 ft 443 kts 287°
2026-05-05 12:28 51.64641 2.06784 29621 ft 440 kts 287°
2026-05-05 12:28 51.65674 2.02173 29143 ft 435 kts 287°
2026-05-05 12:28 51.66692 1.97617 28675 ft 431 kts 287°
2026-05-05 12:29 51.67733 1.92953 28214 ft 426 kts 287°
2026-05-05 12:29 51.68697 1.88626 27763 ft 422 kts 288°
2026-05-05 12:29 51.69682 1.84195 27309 ft 418 kts 287°
2026-05-05 12:29 51.70658 1.79799 26869 ft 415 kts 287°
2026-05-05 12:30 51.71624 1.75434 26401 ft 411 kts 287°
2026-05-05 12:30 51.72580 1.71109 25973 ft 408 kts 288°
2026-05-05 12:30 51.73529 1.66806 25534 ft 406 kts 287°
2026-05-05 12:30 51.74347 1.62481 25092 ft 401 kts 279°
2026-05-05 12:31 51.74561 1.58032 24571 ft 400 kts 265°
2026-05-05 12:31 51.74319 1.53486 24082 ft 412 kts 262°
2026-05-05 12:31 51.74006 1.48862 23484 ft 417 kts 262°
2026-05-05 12:31 51.73695 1.44255 22700 ft 410 kts 262°
2026-05-05 12:32 51.73392 1.39701 21838 ft 406 kts 263°
2026-05-05 12:32 51.73094 1.35198 21018 ft 402 kts 262°
2026-05-05 12:32 51.72798 1.30739 20226 ft 398 kts 263°
2026-05-05 12:32 51.72506 1.26331 19506 ft 394 kts 263°
2026-05-05 12:33 51.72215 1.21961 18819 ft 390 kts 263°
2026-05-05 12:33 51.71925 1.17634 18140 ft 387 kts 263°
2026-05-05 12:33 51.71637 1.13342 17384 ft 384 kts 263°
2026-05-05 12:33 51.71346 1.09047 16651 ft 384 kts 263°
2026-05-05 12:34 51.71058 1.04803 16078 ft 378 kts 263°
2026-05-05 12:34 51.70772 1.00621 15473 ft 373 kts 264°
2026-05-05 12:34 51.70489 0.96498 14869 ft 368 kts 264°
2026-05-05 12:34 51.70209 0.92425 14236 ft 364 kts 264°
2026-05-05 12:35 51.69929 0.88380 13599 ft 361 kts 264°
2026-05-05 12:35 51.69653 0.84424 12925 ft 358 kts 264°
2026-05-05 12:35 51.69371 0.80412 12277 ft 353 kts 264°
2026-05-05 12:35 51.69096 0.76505 11671 ft 349 kts 264°
2026-05-05 12:36 51.68822 0.72640 11012 ft 345 kts 264°
2026-05-05 12:36 51.68554 0.68871 10398 ft 342 kts 264°
2026-05-05 12:36 51.68286 0.65085 9799 ft 338 kts 264°
2026-05-05 12:36 51.68021 0.61399 9454 ft 324 kts 264°
2026-05-05 12:37 51.67766 0.57875 9223 ft 309 kts 264°
2026-05-05 12:37 51.67522 0.54511 8990 ft 294 kts 264°
2026-05-05 12:37 51.67288 0.51297 8964 ft 287 kts 264°
2026-05-05 12:37 51.67056 0.48106 8963 ft 287 kts 264°
2026-05-05 12:38 51.66830 0.44919 8965 ft 287 kts 264°
2026-05-05 12:38 51.66594 0.41729 8965 ft 287 kts 264°
2026-05-05 12:38 51.66357 0.38541 8963 ft 287 kts 264°
2026-05-05 12:38 51.66119 0.35354 8963 ft 286 kts 263°
2026-05-05 12:39 51.65882 0.32174 8964 ft 286 kts 264°
2026-05-05 12:39 51.65644 0.28987 8965 ft 287 kts 264°
2026-05-05 12:39 51.65406 0.25804 8965 ft 287 kts 264°
2026-05-05 12:39 51.65166 0.22616 8965 ft 287 kts 264°
2026-05-05 12:40 51.64930 0.19491 8957 ft 273 kts 263°
2026-05-05 12:40 51.64703 0.16555 8955 ft 257 kts 263°
2026-05-05 12:40 51.64484 0.13727 8963 ft 253 kts 263°
2026-05-05 12:40 51.64271 0.10914 8964 ft 253 kts 263°
2026-05-05 12:41 51.64056 0.08105 8964 ft 253 kts 264°
2026-05-05 12:41 51.63836 0.05293 8966 ft 253 kts 264°
2026-05-05 12:41 51.63618 0.02485 8964 ft 253 kts 264°
2026-05-05 12:41 51.63393 -0.00323 8985 ft 253 kts 263°
2026-05-05 12:42 51.63168 -0.03138 8980 ft 253 kts 263°
2026-05-05 12:42 51.62946 -0.05946 8983 ft 253 kts 264°
2026-05-05 12:42 51.62722 -0.08744 8953 ft 251 kts 263°
2026-05-05 12:42 51.62503 -0.11503 8641 ft 248 kts 263°
2026-05-05 12:43 51.62286 -0.14267 8246 ft 250 kts 263°
2026-05-05 12:43 51.62067 -0.17031 8017 ft 249 kts 263°
2026-05-05 12:43 51.61848 -0.19802 7988 ft 250 kts 264°
2026-05-05 12:43 51.61627 -0.22579 7993 ft 250 kts 264°
2026-05-05 12:44 51.61401 -0.25349 7991 ft 250 kts 263°
2026-05-05 12:44 51.61210 -0.28130 7996 ft 250 kts 265°
2026-05-05 12:44 51.61056 -0.30911 7963 ft 249 kts 266°
2026-05-05 12:44 51.60902 -0.33694 7968 ft 250 kts 265°
2026-05-05 12:45 51.60755 -0.36473 7963 ft 249 kts 266°
2026-05-05 12:45 51.60609 -0.39246 7964 ft 249 kts 265°
2026-05-05 12:45 51.60459 -0.42026 7967 ft 249 kts 266°
2026-05-05 12:45 51.60306 -0.44811 7965 ft 249 kts 265°
2026-05-05 12:46 51.60154 -0.47576 7823 ft 247 kts 265°
2026-05-05 12:46 51.60000 -0.50331 7456 ft 248 kts 265°
2026-05-05 12:46 51.59844 -0.53098 7094 ft 248 kts 265°
2026-05-05 12:46 51.59695 -0.55859 6761 ft 247 kts 266°
2026-05-05 12:47 51.59545 -0.58619 6406 ft 248 kts 265°
2026-05-05 12:47 51.59396 -0.61384 6021 ft 249 kts 265°
2026-05-05 12:47 51.59248 -0.64160 5622 ft 250 kts 265°
2026-05-05 12:47 51.59095 -0.66943 5238 ft 250 kts 265°
2026-05-05 12:48 51.58929 -0.69729 4860 ft 250 kts 265°
2026-05-05 12:48 51.58518 -0.72444 4453 ft 252 kts 244°
2026-05-05 12:48 51.57404 -0.74598 4073 ft 253 kts 217°
2026-05-05 12:48 51.55969 -0.76171 3704 ft 253 kts 211°
2026-05-05 12:49 51.54465 -0.77634 3371 ft 251 kts 211°
2026-05-05 12:49 51.52948 -0.79063 3091 ft 247 kts 209°
2026-05-05 12:49 51.51389 -0.79953 2994 ft 238 kts 184°
2026-05-05 12:49 51.49832 -0.79537 2980 ft 220 kts 150°
2026-05-05 12:50 51.48704 -0.77985 3004 ft 208 kts 124°
2026-05-05 12:50 51.47947 -0.76100 2994 ft 197 kts 111°
2026-05-05 12:50 51.47676 -0.74049 2984 ft 183 kts 88°
2026-05-05 12:50 51.47681 -0.72068 2989 ft 174 kts 86°
2026-05-05 12:51 51.47678 -0.70138 2807 ft 172 kts 86°
2026-05-05 12:51 51.47680 -0.68231 2557 ft 170 kts 86°
2026-05-05 12:51 51.47686 -0.66327 2319 ft 171 kts 86°
2026-05-05 12:51 51.47692 -0.64436 2096 ft 167 kts 86°
2026-05-05 12:52 51.47697 -0.62614 1846 ft 159 kts 86°
2026-05-05 12:52 51.47702 -0.60899 1644 ft 149 kts 86°
2026-05-05 12:52 51.47708 -0.59275 1452 ft 144 kts 86°
2026-05-05 12:52 51.47714 -0.57671 1231 ft 143 kts 85°
2026-05-05 12:53 51.47726 -0.56076 1039 ft 143 kts 85°
2026-05-05 12:53 51.47724 -0.54474 826 ft 144 kts 86°
2026-05-05 12:53 51.47722 -0.52867 646 ft 144 kts 85°
2026-05-05 12:53 51.47749 -0.51283 426 ft 140 kts 85°
2026-05-05 12:54 51.47752 -0.48096 114 ft 146 kts 88°
2026-05-05 12:54 51.47759 -0.46633 98 ft 104 kts 89°
2026-05-05 12:54 51.47760 -0.45846 94 ft 38 kts 90°
2026-05-05 12:55 51.47762 -0.45582 94 ft 17 kts 90°
2026-05-05 12:55 51.47696 -0.45467 94 ft 15 kts 173°
2026-05-05 12:55 51.47604 -0.45430 96 ft 13 kts 124°
2026-05-05 12:55 51.47597 -0.45285 95 ft 12 kts 90°
2026-05-05 12:56 51.47597 -0.45165 94 ft 11 kts 89°
2026-05-05 12:56 51.47598 -0.45032 92 ft 13 kts 89°
2026-05-05 12:56 51.47599 -0.44887 93 ft 11 kts 90°
2026-05-05 12:56 51.47599 -0.44767 93 ft 9 kts 90°
2026-05-05 12:57 51.47579 -0.44672 96 ft 10 kts 144°
2026-05-05 12:57 51.47516 -0.44630 97 ft 10 kts 136°
2026-05-05 12:57 51.47462 -0.44559 96 ft 11 kts 171°
2026-05-05 12:57 51.47379 -0.44560 94 ft 13 kts 181°
2026-05-05 12:58 51.47291 -0.44558 92 ft 12 kts 179°
2026-05-05 12:58 51.47203 -0.44556 94 ft 14 kts 179°
2026-05-05 12:58 51.47110 -0.44557 92 ft 14 kts 179°
2026-05-05 12:58 51.47018 -0.44556 92 ft 12 kts 180°
2026-05-05 12:59 51.46937 -0.44556 92 ft 11 kts 179°
2026-05-05 12:59 51.46881 -0.44554 94 ft 4 kts 174°
2026-05-05 12:59 51.46866 -0.44530 95 ft 2 kts 115°
2026-05-05 13:00 51.46864 -0.44474 92 ft 4 kts 89°
2026-05-05 13:00 51.46865 -0.44432 92 ft 3 kts 89°
2026-05-05 13:01 51.46865 -0.44413 93 ft 0 kts 89°